This is the latest recevied weather packets stored in our database for station/object DB0RES-5. If no packets are shown the sender has not sent any weather packets the latest 10 day(s).
| Time | Temp. | Humidity | Pressure | Rain* | Wind** | Luminosity | Snow |
|---|---|---|---|---|---|---|---|
| 1778154957 | 16.11° C | 55% | 1017.2 hPa | 0 mm | - | - | - |
| 1778154355 | 15.56° C | 55% | 1017.2 hPa | 0 mm | - | - | - |
| 1778153752 | 15.56° C | 55% | 1017.2 hPa | 0 mm | - | - | - |
| 1778153149 | 15.56° C | 54% | 1017.2 hPa | 0 mm | - | - | - |
| 1778152547 | 15° C | 58% | 1017.3 hPa | 0 mm | - | - | - |
| 1778151944 | 14.44° C | 59% | 1017.2 hPa | 0 mm | - | - | - |
| 1778151342 | 15° C | 59% | 1017.2 hPa | 0 mm | - | - | - |
| 1778150739 | 14.44° C | 59% | 1017.2 hPa | 0 mm | - | - | - |
| 1778150136 | 15° C | 60% | 1017.2 hPa | 0 mm | - | - | - |
| 1778149534 | 14.44° C | 61% | 1017.1 hPa | 0 mm | - | - | - |
| 1778148931 | 13.89° C | 62% | 1017.1 hPa | 0 mm | - | - | - |
| 1778148329 | 13.89° C | 61% | 1017 hPa | 0 mm | - | - | - |
| 1778147726 | 14.44° C | 61% | 1016.9 hPa | 0 mm | - | - | - |
| 1778147124 | 13.89° C | 61% | 1016.9 hPa | 0 mm | - | - | - |
| 1778146521 | 13.33° C | 63% | 1017 hPa | 0 mm | - | - | - |
| 1778145919 | 13.89° C | 65% | 1016.9 hPa | 0 mm | - | - | - |
| 1778145316 | 13.89° C | 65% | 1016.8 hPa | 0 mm | - | - | - |
| 1778144774 | 13.33° C | 67% | 1016.7 hPa | 0 mm | - | - | - |
| 1778144171 | 12.78° C | 70% | 1016.7 hPa | 0 mm | - | - | - |
| 1778143568 | 12.78° C | 70% | 1016.7 hPa | 0 mm | - | - | - |
| 1778142966 | 12.22° C | 71% | 1016.8 hPa | 0 mm | - | - | - |
| 1778142363 | 11.67° C | 72% | 1016.9 hPa | 0 mm | - | - | - |
| 1778141760 | 12.22° C | 72% | 1016.8 hPa | 0 mm | - | - | - |
| 1778141158 | 11.67° C | 73% | 1016.8 hPa | 0 mm | - | - | - |
| 1778140555 | 11.11° C | 75% | 1016.7 hPa | 0 mm | - | - | - |
* Rain latest hour (hover to see other rain measurements)
** Current wind speed in m/s (hover to see current wind gust speed)